Time,TemperatureF,DewpointF,PressureIn,WindDirection,WindDirectionDegrees,WindSpeedMPH,WindSpeedGustMPH,Humidity,HourlyPrecipIn,Conditions,Clouds,dailyrainin,SoftwareType,DateUTC
2013-06-25 00:01:00,69.3,69.0,29.90,NE,34,0.0,-999.0,100,-99.99,,,0.00,weatherlink.com 1.10,2013-06-25 04:01:00,
2013-06-25 00:16:00,69.3,69.0,29.90,NE,34,0.0,-999.0,100,-99.99,,,0.00,weatherlink.com 1.10,2013-06-25 04:16:00,
2013-06-25 00:31:00,69.3,69.0,29.90,NE,34,0.0,-999.0,100,-99.99,,,0.00,weatherlink.com 1.10,2013-06-25 04:31:00,
2013-06-25 00:46:00,69.4,69.0,29.91,NE,34,0.0,-999.0,100,-99.99,,,0.00,weatherlink.com 1.10,2013-06-25 04:46:00,
2013-06-25 01:01:00,69.3,69.0,29.91,NE,34,0.0,-999.0,100,-99.99,,,0.00,weatherlink.com 1.10,2013-06-25 05:01:00,
2013-06-25 01:16:00,69.3,69.0,29.90,NE,34,0.0,-999.0,100,-99.99,,,0.00,weatherlink.com 1.10,2013-06-25 05:16:00,
2013-06-25 01:31:00,69.1,69.0,29.89,NE,34,0.0,-999.0,100,-99.99,,,0.00,weatherlink.com 1.10,2013-06-25 05:31:00,
2013-06-25 01:46:00,68.9,69.0,29.88,NE,34,0.0,-999.0,100,-99.99,,,0.00,weatherlink.com 1.10,2013-06-25 05:46:00,
2013-06-25 02:01:00,68.9,69.0,29.88,NE,34,0.0,-999.0,100,-99.99,,,0.00,weatherlink.com 1.10,2013-06-25 06:01:00,
2013-06-25 02:16:00,68.8,69.0,29.88,NE,34,0.0,-999.0,100,-99.99,,,0.00,weatherlink.com 1.10,2013-06-25 06:16:00,
2013-06-25 02:31:00,68.6,69.0,29.88,NE,34,0.0,-999.0,100,-99.99,,,0.00,weatherlink.com 1.10,2013-06-25 06:31:00,
2013-06-25 02:46:00,68.4,68.0,29.86,NE,34,0.0,-999.0,100,-99.99,,,0.00,weatherlink.com 1.10,2013-06-25 06:46:00,
2013-06-25 03:01:00,68.4,68.0,29.86,NE,34,0.0,-999.0,100,-99.99,,,0.00,weatherlink.com 1.10,2013-06-25 07:01:00,
2013-06-25 03:16:00,68.3,68.0,29.86,NE,34,0.0,-999.0,100,-99.99,,,0.00,weatherlink.com 1.10,2013-06-25 07:16:00,
2013-06-25 03:31:00,68.1,68.0,29.87,NE,34,0.0,-999.0,100,-99.99,,,0.00,weatherlink.com 1.10,2013-06-25 07:31:00,
2013-06-25 03:46:00,67.8,68.0,29.87,NE,34,0.0,-999.0,100,-99.99,,,0.00,weatherlink.com 1.10,2013-06-25 07:46:00,
2013-06-25 04:01:00,67.6,68.0,29.87,NE,34,0.0,-999.0,100,-99.99,,,0.00,weatherlink.com 1.10,2013-06-25 08:01:00,
2013-06-25 04:16:00,67.4,67.0,29.88,NE,34,0.0,-999.0,100,-99.99,,,0.00,weatherlink.com 1.10,2013-06-25 08:16:00,
2013-06-25 04:31:00,67.3,67.0,29.88,NE,34,0.0,-999.0,100,-99.99,,,0.00,weatherlink.com 1.10,2013-06-25 08:31:00,
2013-06-25 04:46:00,66.9,67.0,29.87,NE,34,0.0,-999.0,100,-99.99,,,0.00,weatherlink.com 1.10,2013-06-25 08:46:00,
2013-06-25 05:01:00,66.8,67.0,29.88,NE,34,0.0,-999.0,100,-99.99,,,0.00,weatherlink.com 1.10,2013-06-25 09:01:00,
2013-06-25 05:16:00,66.6,67.0,29.88,NE,34,0.0,-999.0,100,-99.99,,,0.00,weatherlink.com 1.10,2013-06-25 09:16:00,
2013-06-25 05:31:00,66.4,66.0,29.88,NE,34,0.0,-999.0,100,-99.99,,,0.00,weatherlink.com 1.10,2013-06-25 09:31:00,
2013-06-25 05:46:00,66.4,66.0,29.88,NE,34,0.0,-999.0,100,-99.99,,,0.00,weatherlink.com 1.10,2013-06-25 09:46:00,
2013-06-25 06:01:00,66.6,67.0,29.88,NE,34,0.0,-999.0,100,-99.99,,,0.00,weatherlink.com 1.10,2013-06-25 10:01:00,
2013-06-25 06:16:00,66.9,67.0,29.88,NE,34,0.0,-999.0,100,-99.99,,,0.00,weatherlink.com 1.10,2013-06-25 10:16:00,
2013-06-25 06:31:00,67.1,67.0,29.87,NE,34,0.0,-999.0,100,-99.99,,,0.00,weatherlink.com 1.10,2013-06-25 10:31:00,
2013-06-25 06:46:00,67.8,68.0,29.87,NE,34,0.0,-999.0,100,-99.99,,,0.00,weatherlink.com 1.10,2013-06-25 10:46:00,
2013-06-25 07:01:00,68.4,68.0,29.86,NE,34,0.0,-999.0,100,-99.99,,,0.00,weatherlink.com 1.10,2013-06-25 11:01:00,
2013-06-25 07:16:00,69.1,69.0,29.87,NE,34,0.0,-999.0,100,-99.99,,,0.00,weatherlink.com 1.10,2013-06-25 11:16:00,
2013-06-25 07:31:00,69.9,70.0,29.87,NE,34,0.0,-999.0,100,-99.99,,,0.00,weatherlink.com 1.10,2013-06-25 11:31:00,
2013-06-25 07:46:00,70.8,71.0,29.87,NE,34,0.0,-999.0,100,-99.99,,,0.00,weatherlink.com 1.10,2013-06-25 11:46:00,
2013-06-25 08:01:00,71.3,71.0,29.87,NE,34,0.0,-999.0,100,-99.99,,,0.00,weatherlink.com 1.10,2013-06-25 12:01:00,
2013-06-25 08:16:00,72.8,73.0,29.86,NE,34,0.0,-999.0,100,-99.99,,,0.00,weatherlink.com 1.10,2013-06-25 12:16:00,
2013-06-25 08:31:00,74.6,75.0,29.86,NE,34,0.0,-999.0,100,-99.99,,,0.00,weatherlink.com 1.10,2013-06-25 12:31:00,
2013-06-25 08:46:00,75.8,76.0,29.86,ESE,113,0.0,-999.0,100,-99.99,,,0.00,weatherlink.com 1.10,2013-06-25 12:46:00,
2013-06-25 09:01:00,77.2,77.0,29.86,ESE,113,0.0,-999.0,99,-99.99,,,0.00,weatherlink.com 1.10,2013-06-25 13:01:00,
2013-06-25 09:16:00,79.0,73.0,29.85,ESE,112,0.0,-999.0,81,-99.99,,,0.00,weatherlink.com 1.10,2013-06-25 13:16:00,
2013-06-25 09:31:00,80.5,69.0,29.85,ENE,66,0.0,-999.0,67,-99.99,,,0.00,weatherlink.com 1.10,2013-06-25 13:31:00,
2013-06-25 09:46:00,82.2,69.0,29.85,East,79,0.0,-999.0,64,-99.99,,,0.00,weatherlink.com 1.10,2013-06-25 13:46:00,
2013-06-25 10:01:00,83.4,70.0,29.85,East,79,0.0,-999.0,64,-99.99,,,0.00,weatherlink.com 1.10,2013-06-25 14:01:00,
2013-06-25 10:16:00,84.5,69.0,29.84,East,79,0.0,-999.0,60,-99.99,,,0.00,weatherlink.com 1.10,2013-06-25 14:16:00,
2013-06-25 10:31:00,85.1,68.0,29.85,WSW,240,0.0,-999.0,56,-99.99,,,0.00,weatherlink.com 1.10,2013-06-25 14:31:00,
2013-06-25 10:46:00,85.9,68.0,29.86,SW,227,0.0,-999.0,55,-99.99,,,0.00,weatherlink.com 1.10,2013-06-25 14:46:00,
2013-06-25 11:02:00,86.7,68.0,29.86,NNW,340,0.0,-999.0,54,-99.99,,,0.00,weatherlink.com 1.10,2013-06-25 15:02:00,
2013-06-25 11:16:00,87.2,67.0,29.86,SW,234,0.0,-999.0,51,-99.99,,,0.00,weatherlink.com 1.10,2013-06-25 15:16:00,
2013-06-25 11:31:00,88.0,68.0,29.85,ENE,58,0.0,-999.0,52,-99.99,,,0.00,weatherlink.com 1.10,2013-06-25 15:31:00,
2013-06-25 11:46:00,88.6,69.0,29.85,NE,52,0.0,-999.0,52,-99.99,,,0.00,weatherlink.com 1.10,2013-06-25 15:46:00,
2013-06-25 12:01:00,89.3,68.0,29.85,ENE,62,0.0,-999.0,50,-99.99,,,0.00,weatherlink.com 1.10,2013-06-25 16:01:00,
2013-06-25 12:16:00,89.7,68.0,29.84,SE,130,1.0,-999.0,49,-99.99,,,0.00,weatherlink.com 1.10,2013-06-25 16:16:00,
2013-06-25 12:31:00,90.1,68.0,29.84,ESE,110,0.0,-999.0,48,-99.99,,,0.00,weatherlink.com 1.10,2013-06-25 16:31:00,
2013-06-25 12:46:00,91.2,67.0,29.83,East,80,0.0,-999.0,45,-99.99,,,0.00,weatherlink.com 1.10,2013-06-25 16:46:00,
2013-06-25 13:01:00,91.8,68.0,29.83,SSW,203,0.0,-999.0,46,-99.99,,,0.00,weatherlink.com 1.10,2013-06-25 17:01:00,
2013-06-25 13:16:00,92.7,68.0,29.82,South,184,0.0,-999.0,45,-99.99,,,0.00,weatherlink.com 1.10,2013-06-25 17:16:00,
2013-06-25 13:31:00,93.4,67.0,29.81,South,178,0.0,-999.0,42,-99.99,,,0.00,weatherlink.com 1.10,2013-06-25 17:31:00,
2013-06-25 13:46:00,93.4,65.0,29.80,WSW,248,0.0,-999.0,39,-99.99,,,0.00,weatherlink.com 1.10,2013-06-25 17:46:00,
2013-06-25 14:01:00,92.9,65.0,29.80,NE,56,0.0,-999.0,40,-99.99,,,0.00,weatherlink.com 1.10,2013-06-25 18:01:00,
2013-06-25 14:16:00,93.2,66.0,29.79,SSW,192,0.0,-999.0,40,-99.99,,,0.00,weatherlink.com 1.10,2013-06-25 18:16:00,
2013-06-25 14:31:00,92.9,66.0,29.78,WNW,302,0.0,-999.0,41,-99.99,,,0.00,weatherlink.com 1.10,2013-06-25 18:31:00,
2013-06-25 14:46:00,92.3,66.0,29.77,North,350,0.0,-999.0,42,-99.99,,,0.00,weatherlink.com 1.10,2013-06-25 18:46:00,
2013-06-25 15:01:00,91.6,64.0,29.77,WSW,250,1.0,-999.0,40,-99.99,,,0.00,weatherlink.com 1.10,2013-06-25 19:01:00,
2013-06-25 15:16:00,91.4,67.0,29.76,SSE,148,0.0,-999.0,44,-99.99,,,0.00,weatherlink.com 1.10,2013-06-25 19:16:00,
2013-06-25 15:31:00,91.6,66.0,29.75,WNW,299,0.0,-999.0,43,-99.99,,,0.00,weatherlink.com 1.10,2013-06-25 19:31:00,
2013-06-25 16:01:00,92.7,66.0,29.74,NNW,344,0.0,-999.0,42,-99.99,,,0.00,weatherlink.com 1.10,2013-06-25 20:01:00,
2013-06-25 16:17:00,92.5,67.0,29.73,North,359,0.0,-999.0,43,-99.99,,,0.00,weatherlink.com 1.10,2013-06-25 20:17:00,
2013-06-25 16:31:00,91.8,66.0,29.73,WNW,294,1.0,-999.0,42,-99.99,,,0.00,weatherlink.com 1.10,2013-06-25 20:31:00,
2013-06-25 16:47:00,91.2,66.0,29.73,NW,313,0.0,-999.0,44,-99.99,,,0.00,weatherlink.com 1.10,2013-06-25 20:47:00,
2013-06-25 17:01:00,91.4,66.0,29.73,NW,312,0.0,-999.0,43,-99.99,,,0.00,weatherlink.com 1.10,2013-06-25 21:01:00,
2013-06-25 17:16:00,90.1,66.0,29.74,NW,323,0.0,-999.0,45,-99.99,,,0.00,weatherlink.com 1.10,2013-06-25 21:16:00,
2013-06-25 17:31:00,88.6,66.0,29.73,NW,325,0.0,-999.0,47,-99.99,,,0.00,weatherlink.com 1.10,2013-06-25 21:31:00,
2013-06-25 17:46:00,87.4,67.0,29.72,NW,325,0.0,-999.0,51,-99.99,,,0.00,weatherlink.com 1.10,2013-06-25 21:46:00,
2013-06-25 18:01:00,86.3,68.0,29.71,NW,326,0.0,-999.0,54,-99.99,,,0.00,weatherlink.com 1.10,2013-06-25 22:01:00,
2013-06-25 18:16:00,85.7,67.0,29.71,NW,326,0.0,-999.0,54,-99.99,,,0.00,weatherlink.com 1.10,2013-06-25 22:16:00,
2013-06-25 18:31:00,85.1,69.0,29.71,NW,326,0.0,-999.0,58,-99.99,,,0.00,weatherlink.com 1.10,2013-06-25 22:31:00,
2013-06-25 18:46:00,84.3,69.0,29.71,WSW,254,0.0,-999.0,61,-99.99,,,0.00,weatherlink.com 1.10,2013-06-25 22:46:00,
2013-06-25 19:01:00,83.2,70.0,29.71,WSW,254,0.0,-999.0,64,-99.99,,,0.00,weatherlink.com 1.10,2013-06-25 23:01:00,
2013-06-25 19:16:00,82.4,70.0,29.71,WSW,254,0.0,-999.0,66,-99.99,,,0.00,weatherlink.com 1.10,2013-06-25 23:16:00,
2013-06-25 19:31:00,81.2,68.0,29.71,SSE,150,0.0,-999.0,65,-99.99,,,0.00,weatherlink.com 1.10,2013-06-25 23:31:00,
2013-06-25 19:46:00,80.3,67.0,29.71,SSE,157,0.0,-999.0,64,-99.99,,,0.00,weatherlink.com 1.10,2013-06-25 23:46:00,
2013-06-25 20:01:00,78.1,70.0,29.72,NNE,32,0.0,-999.0,77,-99.99,,,0.02,weatherlink.com 1.10,2013-06-26 00:01:00,
2013-06-25 20:16:00,77.0,75.0,29.71,NNE,32,0.0,-999.0,93,-99.99,,,0.02,weatherlink.com 1.10,2013-06-26 00:16:00,
2013-06-25 20:31:00,75.6,76.0,29.74,NNE,20,2.0,-999.0,100,-99.99,,,0.02,weatherlink.com 1.10,2013-06-26 00:31:00,
2013-06-25 20:46:00,74.0,74.0,29.73,NNE,18,0.0,-999.0,100,-99.99,,,0.04,weatherlink.com 1.10,2013-06-26 00:46:00,
2013-06-25 21:01:00,73.2,73.0,29.73,East,89,1.0,-999.0,100,-99.99,,,0.06,weatherlink.com 1.10,2013-06-26 01:01:00,
2013-06-25 21:16:00,72.8,73.0,29.72,East,86,0.0,-999.0,100,-99.99,,,0.06,weatherlink.com 1.10,2013-06-26 01:16:00,
2013-06-25 21:31:00,72.7,73.0,29.73,East,86,0.0,-999.0,100,-99.99,,,0.06,weatherlink.com 1.10,2013-06-26 01:31:00,
2013-06-25 21:46:00,72.5,73.0,29.74,East,86,0.0,-999.0,100,-99.99,,,0.06,weatherlink.com 1.10,2013-06-26 01:46:00,
2013-06-25 22:01:00,72.3,72.0,29.74,East,86,0.0,-999.0,100,-99.99,,,0.06,weatherlink.com 1.10,2013-06-26 02:01:00,
2013-06-25 22:16:00,72.1,72.0,29.74,East,86,0.0,-999.0,100,-99.99,,,0.06,weatherlink.com 1.10,2013-06-26 02:16:00,
2013-06-25 22:31:00,72.0,72.0,29.74,East,86,0.0,-999.0,100,-99.99,,,0.06,weatherlink.com 1.10,2013-06-26 02:31:00,
2013-06-25 22:46:00,71.8,72.0,29.74,East,86,0.0,-999.0,100,-99.99,,,0.06,weatherlink.com 1.10,2013-06-26 02:46:00,
2013-06-25 23:01:00,71.6,72.0,29.73,East,86,0.0,-999.0,100,-99.99,,,0.06,weatherlink.com 1.10,2013-06-26 03:01:00,
2013-06-25 23:16:00,71.5,72.0,29.74,East,86,0.0,-999.0,100,-99.99,,,0.06,weatherlink.com 1.10,2013-06-26 03:16:00,
2013-06-25 23:31:00,71.3,71.0,29.73,East,86,0.0,-999.0,100,-99.99,,,0.06,weatherlink.com 1.10,2013-06-26 03:31:00,
2013-06-25 23:46:00,70.9,71.0,29.72,East,86,0.0,-999.0,100,-99.99,,,0.06,weatherlink.com 1.10,2013-06-26 03:46:00,